Location: Düngen
(52.0952°N, 10.0219°E)
Time: 08:13:43
(UTC+00:00)

Cosmos 2344 - Visible Passes

Search period start: 09 June 2026 00:00
Search period end: 19 June 2026 00:00
Orbit: 1194 x 3048 km, 63.3° (Epoch: 8 June)

Date Brightness Start Highest point End Pass type
(mag) Time Alt. Az. Time Alt. Az. Time Alt. Az.
9 Jun 4.0 00:24:45 10° WSW 00:32:02 56° NNW 00:39:21 10° NE visible
9 Jun 3.8 22:00:13 10° SSW 22:07:29 46° ESE 22:14:16 10° NE visible
10 Jun 4.1 00:14:24 10° WSW 00:21:41 56° NNW 00:28:59 10° NE visible
10 Jun 3.8 21:49:45 10° SSW 21:57:08 46° ESE 22:03:54 10° NE visible
11 Jun 4.1 00:04:03 10° WSW 00:11:19 56° NNW 00:18:38 10° NE visible
11 Jun 3.8 21:39:23 10° SSW 21:46:46 46° ESE 21:53:33 10° NE visible
11 Jun 4.1 23:53:41 10° WSW 00:00:58 56° NNW 00:08:16 10° NE visible
12 Jun 5.1 02:10:23 10° WNW 02:17:00 36° N 02:24:26 10° ENE visible
12 Jun 3.8 21:29:01 10° SSW 21:36:24 46° ESE 21:43:12 10° NE visible
12 Jun 4.1 23:43:20 10° WSW 23:50:36 56° NNW 23:57:55 10° NE visible
13 Jun 5.1 02:00:02 10° WNW 02:06:38 36° N 02:14:04 10° ENE visible
13 Jun 3.8 21:18:40 10° SSW 21:26:03 46° ESE 21:32:50 10° NE visible
13 Jun 4.1 23:32:58 10° WSW 23:40:15 56° NNW 23:47:34 10° NE visible
14 Jun 5.1 01:49:41 10° WNW 01:56:17 36° N 02:03:44 10° ENE visible
14 Jun 3.7 21:08:18 10° SSW 21:15:41 46° ESE 21:22:28 10° NE visible
14 Jun 4.1 23:22:37 10° WSW 23:29:54 56° NNW 23:37:12 10° NE visible
15 Jun 5.1 01:39:19 10° WNW 01:45:56 36° N 01:53:22 10° ENE visible
15 Jun 3.7 20:57:56 10° SSW 21:05:20 46° ESE 21:12:07 10° NE visible
15 Jun 4.1 23:12:16 10° WSW 23:19:32 56° NNW 23:26:51 10° NE visible
16 Jun 5.1 01:28:58 10° WNW 01:35:34 36° N 01:43:01 10° ENE visible
16 Jun 3.7 20:47:34 10° SSW 20:54:58 47° ESE 21:01:46 10° NE visible
16 Jun 4.1 23:01:55 10° WSW 23:09:11 56° NNW 23:16:30 10° NE visible
17 Jun 5.1 01:18:37 10° WNW 01:25:14 36° N 01:32:40 10° ENE visible
17 Jun 3.7 20:37:13 10° SSW 20:44:37 47° ESE 20:51:25 10° NE visible
17 Jun 4.2 22:51:34 10° WSW 22:58:50 56° NNW 23:06:08 10° NE visible
18 Jun 5.1 01:08:16 10° WNW 01:14:52 36° N 01:22:18 10° ENE visible
18 Jun 3.7 20:26:51 10° SSW 20:34:15 47° ESE 20:41:03 10° NE visible
18 Jun 4.2 22:41:12 10° WSW 22:48:28 56° NNW 22:55:47 10° NE visible
